Home   Weather   Louisville   Past weeks

Flag for USA Past Weather in Louisville, Kentucky, USA — Yesterday and Last 2 Weeks

Now
55 °F

Partly cloudy.


Feels Like: 53 °F
Forecast: 52 / 71 °F
Wind: 8 mph from North

Location: Standiford Field

Current Time: Apr 24, 2017 at 5:43:42 am

Latest Report: Apr 24, 2017 at 4:56 am


Visibility: 10 mi

Pressure: 29.87 "Hg

Humidity: 69%

Dew Point: 45 °F

Location of LouisvilleLocation

Past Weather in Louisville — Graph

°F

Louisville Temperature Yesterday

Maximum temperature yesterday: 63 °F (at 12:56 pm)
Minimum temperature yesterday: 47 °F (at 5:56 am)
Average temperature yesterday: 56 °F

High & Low Weather Summary for the Past Weeks

 TemperatureHumidityPressure
High86 °F (Apr 15, 3:56 pm)97% (Apr 16, 9:56 pm)30.38 "Hg (Apr 16, 9:56 pm)
Low47 °F (Apr 23, 5:56 am)17% (Apr 10, 3:56 pm)29.86 "Hg (Apr 24, 3:56 am)
Average66 °F59%30.08 "Hg
* Reported Apr 9 3:56 am — Apr 24 3:56 am, Louisville, Weather by CustomWeather, © 2017

Note: Actual official high and low records may vary slightly from our data, if they occured in-between our weather recording intervals... More about our weather records

Advertising

Louisville Weather History for the Previous 24 Hours

Scroll right to see more
 ConditionsComfort  
Time TempWeatherWind HumidityBarometerVisibility
3:56 am
Mon, Apr 24
56 °FPassing clouds.8 mph67%29.86 "Hg10 mi
2:56 am59 °FPartly cloudy.9 mph60%29.88 "Hg10 mi
1:56 am59 °FMostly cloudy.9 mph58%29.90 "Hg10 mi
12:56 am60 °FMostly cloudy.6 mph53%29.93 "Hg10 mi
11:56 pm
Sun, Apr 23
61 °FOvercast.5 mph48%29.94 "Hg10 mi
10:56 pm60 °FMostly cloudy.6 mph49%29.94 "Hg10 mi
9:56 pm60 °FMostly cloudy.5 mph49%29.94 "Hg10 mi
8:56 pm62 °FOvercast.5 mph43%29.92 "Hg10 mi
7:56 pm61 °FPartly sunny.14 mph44%29.90 "Hg10 mi
6:56 pm61 °FMostly cloudy.13 mph48%29.92 "Hg10 mi
5:56 pm61 °FMostly cloudy.10 mph50%29.92 "Hg10 mi
4:56 pm61 °FPartly sunny.13 mph48%29.92 "Hg10 mi
3:56 pm60 °FOvercast.16 mph47%29.93 "Hg10 mi
2:56 pm61 °FPartly sunny.15 mph44%29.94 "Hg10 mi
1:56 pm63 °FBroken clouds.18 mph45%29.95 "Hg10 mi
12:56 pm63 °FBroken clouds.16 mph50%29.94 "Hg10 mi
12:13 pm60 °FBroken clouds.16 mph56%29.95 "Hg10 mi
11:56 am61 °FPartly sunny.14 mph52%29.94 "Hg10 mi
10:56 am57 °FPartly sunny.18 mph55%29.97 "Hg10 mi
10:29 am55 °FPartly sunny.13 mph55%29.98 "Hg10 mi
9:56 am53 °FPartly sunny.16 mph59%29.98 "Hg10 mi
8:56 am50 °FPartly sunny.12 mph63%29.98 "Hg10 mi
7:56 am47 °FScattered clouds.13 mph69%29.97 "Hg10 mi
6:56 am47 °FScattered clouds.13 mph71%29.96 "Hg10 mi
5:56 am47 °FPassing clouds.8 mph71%29.96 "Hg10 mi
Weather by CustomWeather, © 2017

See weather overviewHow to use our weather pages